Hourly Weather Roundup
Issued by NWS Central Illinois

Home | Current Version | Previous Version | Text Only | Print | Product List | Glossary On
Versions: 1 2 3 4 5 6 7 8 9 10 11 12 13 14 15 16 17 18 19 20 21 22 23 24 25 26 27 28 29 30 31 32 33 34 35 36 37 38 39 40 41 42 43 44 45 46 47 48 49 50
000
NZUS43 KILX 061710
HWRILX

AREA WEATHER ROUNDUP
NATIONAL WEATHER SERVICE, LINCOLN IL
1100 AM CST TUE DEC 06 2016


CITY           SKY/WX    TMP DP  RH WIND       PRES   REMARKS
BLOOMINGTON    CLOUDY    34  33  96 W14       29.82R FOG     WCI  25
CHAMPAIGN      CLOUDY    37  33  85 NW13      29.78S FOG     WCI  29
DANVILLE       CLOUDY    37  35  92 NW7       29.74S FOG     WCI  31
DECATUR        CLOUDY    37  33  85 NW8       29.82R FOG     WCI  31
EFFINGHAM      CLOUDY    40  38  93 NW16      29.84R WCI  32
FLORA          CLOUDY    43  39  87 NW12      29.83R
GALESBURG      CLOUDY    35  35 100 W12       29.86R FOG     WCI  26
JACKSONVILLE   CLOUDY    37  35  94 W10       29.88S FOG     WCI  30
LACON          CLOUDY    34  33  97 W9        29.83R FOG     WCI  26
LAWRENCEVILLE  CLOUDY    41  39  93 NW9       29.79S
LITCHFIELD     CLOUDY    37  35  91 NW18G24   29.87R WCI  27
$$


CITY           SKY/WX    TMP DP  RH WIND       PRES   REMARKS
LINCOLN        CLOUDY    37  35  92 NW8       29.85R WCI  31
MACOMB         CLOUDY    37  36  97 NW15G23   29.89R FOG     WCI  28
MATTOON        CLOUDY    40  35  83 NW14      29.79R WCI  32
MT CARMEL AP   CLOUDY    41  38  91 NW9       29.79S FOG
OLNEY-NOBLE AP CLOUDY    41  41 100 NW13      29.81R FOG     WCI  34
PARIS          CLOUDY    39  37  93 NW10      29.79R WCI  32
PEORIA         CLOUDY    36  35  96 W7        29.85R WCI  30
PONTIAC        FOG       33  33 100 NW9       29.80S VSB 1   WCI  25
RANTOUL        CLOUDY    36  34  95 NW9       29.78R FOG     WCI  29
SPRINGFIELD    CLOUDY    38  35  89 NW13      29.87R FOG     WCI  30
TAYLORVILLE    CLOUDY    36  33  90 NW16G23   29.86R WCI  26
$$

...REGIONAL REPORTS...


CITY           SKY/WX    TMP DP  RH WIND       PRES   REMARKS
CHICAGO O`HARE PTSUNNY   37  34  89 W6        29.75F FOG     WCI  32
KANKAKEE       SUNNY     35  30  83 CALM      29.77F HAZE
MOLINE         CLOUDY    34  30  85 W16       29.85R WCI  24
MOUNT STERLING CLOUDY    37  35  96 NW10      29.88S FOG     WCI  29
MOUNT VERNON   NOT AVBL
PITTSFIELD     CLOUDY    38  37  92 NW10      29.91R FOG     WCI  32
QUINCY         CLOUDY    37  34  89 NW15      29.91R WCI  28
ROCKFORD       CLOUDY    34  31  88 W7        29.80F FOG     WCI  28
$$


CITY           SKY/WX    TMP DP  RH WIND       PRES   REMARKS
BURLINGTON     PTSUNNY   36  30  79 NW14G22   29.89R WCI  27
CEDAR RAPIDS   MOSUNNY   30  24  78 NW23G29   29.88S WCI  17
DES MOINES     MOSUNNY   29  14  53 W22       29.97R WCI  15
KIRKSVILLE     SUNNY     36  21  54 NW18G24   29.94R WCI  26
OTTUMWA        SUNNY     33  19  56 NW20G28   29.93R WCI  21
ST LOUIS       CLOUDY    41  34  76 NW14G22   29.92R WCI  33
$$


CITY           SKY/WX    TMP DP  RH WIND       PRES   REMARKS
TERRE HAUTE    CLOUDY    41  37  86 NW6       29.77S
EVANSVILLE     CLOUDY    43  40  89 NW13      29.78R FOG
INDIANAPOLIS   CLOUDY    39  37  92 NW12      29.73R FOG     WCI  32
LAFAYETTE      PTSUNNY   38  34  85 NW5       29.75S WCI  34
MADISON        CLOUDY    33  31  92 SW6       29.75F FOG     WCI  28
MILWAUKEE      CLOUDY    41  35  79 SW6       29.74F
$$






USA.gov is the U.S. government's official web portal to all federal, state and local government web resources and services.